Weather History for Douglas, WY

Change the Weather History Date:

Wednesday, February 12, 2014

  Actual Average Record
Temperature  
Mean Temperature 24 °F 26 °F  
Max Temperature 42 °F 39 °F 56 °F (2005)
Min Temperature 6 °F 13 °F -12 °F (2004)
Degree Days  
Heating Degree Days 41 39  
Month to date heating degree days 699 476  
Since 1 July heating degree days 4973 4807  
Cooling Degree Days 0 0  
Month to date cooling degree days 0 0  
Year to date cooling degree days 0 0  
Moisture  
Dew Point 20 °F    
Average Humidity 70    
Maximum Humidity 88    
Minimum Humidity 51    
Precipitation  
Precipitation 0.00 in 0.01 in 0.11 in (2009)
Month to date precipitation 0.02 0.18  
Year to date precipitation 0.51 0.56  
Sea Level Pressure  
Sea Level Pressure 29.93 in    
Wind  
Wind Speed 15 mph (West)    
Max Wind Speed 38 mph    
Max Gust Speed 48 mph    
Visibility 10 miles    
Events      
T = Trace of Precipitation, MM = Missing Value Source: NWS Daily Summary

Daily Weather History Graph

Daily Weather History Graph

Search for Another Location

Airport:

Trip Planner

Search our weather history database for the weather conditions in past years. The results will help you decide how hot, cold, wet, or windy it might be!

Date:

Astronomy

Feb. 12, 2014 Rise Set
Actual Time 7:02 AM MST 5:29 PM MST
Civil Twilight 6:33 AM MST 5:58 PM MST
Nautical Twilight 6:00 AM MST 6:31 PM MST
Astronomical Twilight 5:27 AM MST 7:04 PM MST
Moon 3:44 PM MST (2/12) 5:22 AM MST (2/12)
Length of Visible Light 11h 25m
Length of Day
10h 26m
Waxing Gibbous, 96% of the Moon is Illuminated
Feb 12
Waxing Gibbous
Feb 14
Full
Feb 22
Last Quarter
Mar 1
New
Mar 8
First Quarter

Hourly Weather History & Observations

Time (MST) Temp. Windchill Dew Point Humidity Pressure Visibility Wind Dir Wind Speed Gust Speed Precip Events Conditions
12:19 AM 19.4 °F 11.5 °F 15.8 °F 86% 30.11 in 10.0 mi North 5.8 mph - N/A   Scattered Clouds
12:53 AM 16.0 °F 8.8 °F 12.0 °F 84% 30.22 in 10.0 mi NNW 4.6 mph - N/A   Clear
1:53 AM 15.1 °F - 10.9 °F 84% 30.20 in 10.0 mi Calm Calm - N/A   Clear
2:53 AM 12.0 °F - 8.1 °F 84% 30.21 in 10.0 mi Calm Calm - N/A   Clear
3:53 AM 9.0 °F 2.4 °F 5.0 °F 84% 30.19 in 10.0 mi East 3.5 mph - N/A   Clear
4:53 AM 8.1 °F - 5.0 °F 87% 30.17 in 10.0 mi Calm Calm - N/A   Clear
5:53 AM 10.0 °F 3.6 °F 7.0 °F 87% 30.15 in 10.0 mi SSE 3.5 mph - N/A   Clear
6:53 AM 12.9 °F 5.2 °F 9.0 °F 84% 30.10 in 10.0 mi SSE 4.6 mph - N/A   Clear
7:53 AM 14.0 °F - 10.0 °F 84% 30.09 in 10.0 mi Calm Calm - N/A   Clear
8:53 AM 17.1 °F - 12.9 °F 84% 30.05 in 10.0 mi Calm Calm - N/A   Clear
9:53 AM 37.0 °F 29.3 °F 21.9 °F 54% 29.92 in 10.0 mi SW 11.5 mph 19.6 mph N/A   Partly Cloudy
10:53 AM 39.0 °F 28.8 °F 25.0 °F 57% 29.86 in 10.0 mi West 21.9 mph 32.2 mph N/A   Clear
11:53 AM 39.9 °F 31.1 °F 25.0 °F 55% 29.82 in 10.0 mi West 17.3 mph 29.9 mph N/A   Clear
12:53 PM 41.0 °F 29.5 °F 25.0 °F 53% 29.76 in 10.0 mi West 32.2 mph 43.7 mph N/A   Mostly Cloudy
1:53 PM 41.0 °F 30.5 °F 25.0 °F 53% 29.75 in 10.0 mi West 26.5 mph 38.0 mph N/A   Clear
2:53 PM 41.0 °F 34.3 °F 26.1 °F 55% 29.77 in 10.0 mi West 11.5 mph 18.4 mph N/A   Clear
3:53 PM 42.1 °F 31.5 °F 27.0 °F 55% 29.75 in 10.0 mi West 28.8 mph 40.3 mph N/A   Clear
4:53 PM 42.1 °F 30.8 °F 27.0 °F 55% 29.75 in 10.0 mi West 33.4 mph 43.7 mph N/A   Clear
5:53 PM 42.1 °F 30.8 °F 28.0 °F 58% 29.77 in 10.0 mi West 33.4 mph 42.6 mph N/A   Clear
6:53 PM 39.9 °F 29.7 °F 28.9 °F 65% 29.79 in 10.0 mi West 23.0 mph 32.2 mph N/A   Clear
7:53 PM 41.0 °F 30.9 °F 28.9 °F 62% 29.77 in 10.0 mi West 24.2 mph 33.4 mph N/A   Clear
8:53 PM 39.9 °F 29.0 °F 28.9 °F 65% 29.77 in 10.0 mi West 26.5 mph 39.1 mph N/A   Clear
9:53 PM 39.0 °F 28.0 °F 28.9 °F 67% 29.74 in 10.0 mi WNW 25.3 mph - N/A   Clear
10:53 PM 39.0 °F 29.9 °F 28.0 °F 65% 29.75 in 10.0 mi NW 17.3 mph 28.8 mph N/A   Clear
11:53 PM 37.9 °F 28.2 °F 27.0 °F 65% 29.77 in 10.0 mi WNW 18.4 mph 25.3 mph N/A   Clear